RADUGA-1 1 [-]

Last updated on June 27, 2019, 3:44 a.m. UTC

1 20083U 89048A   19177.44323220 -.00000057  00000-0  00000+0 0  9999
2 20083  15.1255 355.2209 0019366  75.4504  99.8088  0.98707032106117
UTC
Height (km)
Latitude
Longitude
Inclination
Orbital Period
UTC large
Height (km)
Speed (km/s)
/
Latitude / Longitude
Inclination (degrees)
Orbital Period (minutes)
Azimuth
Elevation
Range (km)
Doppler Factor
iOS Compass Heading
iOS Angle

Next 30 passes for location: Hong Kong

Rise time Rise Azimuth (degrees) Set time Set Azimuth (degrees) Duration Max altitude (degrees)

No matching passes for this satellites